RH
100 100 58 50 56 64 88 89 72 77 73 75 89 81 70 46 38 39 45 36 33 45 56 67 89 100 100 97 100 100 100 100 98 86 54 37 33 28 24 26 28 26 24 23 20 20 18 18 18
100 100 72 48 51 60 76 76 81 69 69 92 91 82 69 48 46 47 45 37 34 51 54 60 71 93 99 100 98 93 85 67 50 38 35 33 33 25 31 32 29 25 26 25 25 22 22 22 19
97 100 83 46 48 56 66 65 75 55 86 83 85 83 59 74 69 77 56 47 34 46 55 50 48 59 87 88 81 72 56 39 36 42 44 45 42 34 34 29 27 27 25 23 22 21 18 16 16
60 100 97 52 56 54 55 60 66 70 83 85 86 79 76 83 59 70 61 50 41 34 48 49 45 45 47 51 50 47 41 46 50 52 37 33 35 33 28 27 26 24 22 20 17 17 17 17 18
49 80 99 70 66 56 50 54 67 72 75 87 87 77 79 82 71 75 72 62 51 44 36 46 59 63 59 63 65 62 56 51 43 38 29 27 28 27 27 26 21 19 19 18 18 18 20 21 24
62 83 85 88 76 56 49 49 72 56 72 92 89 79 81 81 74 72 71 64 60 55 55 53 60 71 76 66 57 48 41 37 34 31 30 28 24 22 22 22 21 21 22 26 28 30 33 34 33
81 73 100 98 82 56 53 38 87 62 65 92 78 81 79 78 75 72 69 64 62 54 53 54 52 49 46 44 40 36 33 31 30 28 26 25 24 24 25 24 29 35 42 43 42 43 41 37 34
86 80 100 100 89 60 54 43 84 70 74 78 99 64 72 73 75 76 72 62 61 49 44 42 41 41 37 36 34 33 32 31 29 28 28 28 30 32 35 34 41 44 44 46 40 38 37 35 33
77 64 90 100 100 74 56 46 68 71 72 84 90 55 71 71 76 76 75 55 55 49 42 38 36 34 33 32 30 30 31 30 30 30 29 30 33 33 38 42 50 50 53 47 41 41 41 38 36
83 76 96 100 100 98 58 40 61 68 69 81 79 71 72 69 73 75 74 51 51 44 37 32 30 28 28 28 29 30 31 32 33 33 41 46 48 48 48 45 45 54 56 49 42 40 44 50 52
99 81 100 100 100 100 86 42 56 74 76 77 78 68 71 79 77 81 76 53 43 44 41 36 32 29 30 32 30 31 30 31 33 36 38 42 40 36 34 34 42 51 52 49 43 44 51 56 54
100 100 100 100 100 100 100 51 67 72 84 77 69 61 83 83 82 81 78 63 45 40 39 37 34 32 32 31 30 28 28 28 31 33 33 34 32 39 43 47 54 58 58 52 44 47 54 54 52
100 100 93 99 100 100 100 88 52 66 69 79 78 96 88 86 86 70 68 64 52 44 40 36 35 34 32 32 28 27 28 29 28 29 31 32 37 53 65 75 66 60 54 52 52 57 57 54 51
100 100 78 78 100 100 100 100 63 56 63 81 95 96 91 91 90 78 61 61 55 45 40 39 39 38 35 33 32 29 29 28 29 30 31 38 46 62 67 62 58 54 55 57 59 53 54 52 46
100 86 82 61 100 100 100 100 100 59 61 74 91 95 98 97 100 93 74 57 52 55 50 48 44 41 42 41 38 34 29 29 29 32 38 52 59 62 62 60 62 58 58 60 56 55 51 47 49
77 85 81 82 97 100 100 100 100 94 62 70 77 88 92 96 99 98 93 81 69 68 67 61 51 53 48 45 43 38 33 32 32 42 55 59 65 64 66 63 60 60 60 56 54 51 50 50 50
29 63 81 100 100 100 100 100 100 99 97 72 82 77 75 77 79 81 82 79 74 72 71 68 63 53 48 44 42 37 37 45 50 64 80 79 72 65 63 63 65 61 65 68 56 52 53 57 62
14 47 84 100 100 100 100 100 100 100 94 100 100 100 98 76 67 66 64 64 63 61 59 60 59 57 50 46 51 65 59 66 87 99 83 73 70 65 63 66 69 70 66 63 63 58 57 67 73
12 30 66 100 100 100 100 100 100 100 100 100 99 100 100 100 100 92 97 96 87 81 77 69 66 67 67 87 100 100 94 89 100 95 74 73 80 76 75 75 73 64 60 59 64 62 64 73 73
10 13 50 93 100 100 100 99 100 100 100 100 100 100 100 100 100 100 100 100 100 100 100 100 100 99 99 94 90 99 100 95 87 88 87 87 95 100 89 85 80 70 63 66 64 70 70 68 64
9 11 19 64 100 100 100 95 91 99 100 100 100 100 100 100 100 100 100 100 100 100 100 100 100 100 100 100 98 98 100 100 100 91 97 92 92 85 86 84 73 76 78 75 72 67 67 68 65
10 11 14 35 100 100 100 100 92 96 100 100 100 100 100 100 100 100 100 100 100 100 100 100 100 100 100 100 100 100 93 93 100 100 96 93 84 76 66 64 64 62 65 65 62 62 63 67 73
11 10 13 86 100 100 100 100 100 94 100 100 100 100 100 100 100 100 100 100 100 100 100 100 100 100 100 96 96 97 97 87 87 100 99 86 82 72 63 48 47 45 51 55 56 60 58 70 74
12 11 12 25 74 99 100 100 100 100 100 100 100 100 100 100 100 100 100 100 100 100 100 100 100 100 100 100 96 95 100 99 98 82 77 78 67 61 66 68 64 61 57 54 50 50 51 61 76
12 11 11 13 51 84 100 100 100 99 100 100 100 100 100 100 100 100 100 100 100 100 100 100 100 100 100 100 99 100 100 87 92 88 80 79 74 76 73 70 64 61 56 53 51 49 48 51 64
13 12 11 11 14 61 100 100 100 100 100 100 100 100 100 100 100 100 100 100 100 100 99 93 91 92 94 88 89 98 99 91 92 93 84 83 82 72 66 60 60 58 59 60 66 62 50 45 40
14 13 13 13 13 16 47 99 100 100 100 100 94 100 100 100 100 100 100 100 100 98 92 92 93 88 92 98 100 100 100 97 88 86 80 76 70 63 61 53 61 62 74 77 60 32 21 18 18
14 14 14 13 14 15 17 34 99 100 100 100 100 93 88 94 97 97 94 91 89 87 88 95 91 91 93 95 98 94 91 82 75 75 67 63 61 59 65 66 77 72 53 23 18 17 16 16 16
17 16 16 16 15 15 15 16 28 100 100 100 100 100 100 99 94 84 78 75 76 77 74 72 74 74 73 66 69 67 68 63 60 57 56 60 70 82 80 58 49 38 20 17 17 18 16 14 14
24 24 21 20 18 17 15 16 18 50 100 100 100 100 100 100 100 100 100 100 93 90 82 72 70 69 72 66 54 60 72 66 59 71 70 83 68 63 54 34 28 28 21 20 23 18 12 10 9
Wind_Speed
80 76 73 74 73 68 67 65 61 61 57 54 53 50 47 47 40 37 35 33 32 33 33 35 32 33 42 45 37 33 32 29 29 27 25 27 26 26 25 25 27 29 30 29 29 33 35 37 40
83 80 78 76 74 71 69 68 66 65 57 59 57 53 50 43 43 40 37 36 34 34 34 34 33 32 32 32 32 31 29 29 28 27 26 26 27 28 29 30 31 30 29 31 35 38 41 42 44
87 85 81 76 75 73 72 70 71 63 64 62 59 55 50 44 46 43 41 38 37 35 36 36 35 33 30 30 30 31 31 31 28 27 28 29 30 31 32 32 31 31 33 36 40 43 44 46 48
93 89 84 78 75 78 75 70 69 68 68 64 61 58 54 53 48 43 42 39 40 37 37 37 36 34 34 34 33 33 32 31 29 29 27 29 31 33 34 33 34 36 39 42 43 46 49 51 51
95 91 85 79 77 80 78 71 71 74 71 68 66 60 57 54 51 47 45 42 41 40 37 37 36 35 34 32 33 33 32 32 31 29 29 31 32 34 35 37 39 40 43 46 49 50 51 53 53
95 91 87 82 79 82 79 73 75 75 74 73 70 63 61 58 55 51 47 45 42 41 38 37 36 35 36 35 34 34 34 33 33 31 33 34 36 36 38 39 41 44 47 48 50 51 53 54 56
99 93 87 85 84 85 83 76 81 79 77 77 69 67 64 61 58 54 51 48 45 43 41 41 39 38 37 38 38 37 35 37 36 35 37 38 39 42 44 44 46 46 48 49 51 52 54 56 58
102 98 92 89 88 85 86 81 84 81 80 74 72 67 63 64 61 58 55 52 49 46 44 42 42 42 41 41 40 38 38 39 41 41 42 44 44 44 45 47 47 50 51 51 53 55 57 59 61
110 102 94 90 88 86 88 87 87 83 80 76 77 66 65 66 65 61 59 56 53 51 49 47 46 45 45 42 41 41 42 43 44 45 47 47 47 48 48 49 51 53 57 58 57 59 60 62 63
111 102 90 88 90 92 93 90 90 84 82 80 76 74 72 69 66 63 61 58 57 54 52 50 47 45 43 43 44 45 46 47 47 47 47 48 50 52 53 54 57 60 61 62 63 63 64 66 67
112 103 96 96 100 98 95 89 87 87 85 84 80 77 73 71 68 66 65 61 59 58 57 55 52 48 47 48 48 50 51 51 51 52 51 53 56 58 61 63 64 66 67 67 68 68 68 69 69
116 108 105 106 100 100 96 90 96 92 91 88 81 73 76 75 72 68 67 65 63 61 60 58 56 55 54 54 55 55 55 55 55 56 57 60 62 64 65 67 68 70 70 70 70 70 70 70 71
119 113 111 107 98 98 97 95 99 94 91 86 82 81 82 77 75 73 70 68 67 66 64 62 62 62 61 60 59 59 59 59 60 61 64 65 67 69 69 71 73 72 72 72 73 73 72 72 74
124 119 116 109 100 99 101 102 100 96 89 86 87 87 83 79 79 76 74 73 72 70 68 67 68 68 67 65 64 64 65 65 66 68 70 71 72 73 75 76 76 76 76 75 74 75 75 77 78
126 123 119 111 104 103 104 103 93 99 92 90 91 89 86 84 82 81 79 76 74 74 73 73 72 72 72 72 71 70 70 71 72 72 74 75 76 77 78 79 77 78 76 76 76 77 79 80 80
127 125 122 114 109 108 105 101 98 100 98 94 93 91 89 86 86 84 83 80 78 76 78 77 75 76 76 76 75 75 76 76 77 78 78 80 80 80 79 79 78 77 78 79 80 83 83 84 85
122 126 123 117 113 112 107 102 103 100 98 96 93 93 91 90 90 89 87 84 82 82 81 81 81 80 79 79 79 79 79 79 80 79 77 78 80 81 80 80 80 80 81 84 86 87 87 87 85
113 122 121 119 116 113 109 105 103 100 98 97 96 93 91 92 91 90 88 84 84 85 84 82 82 82 82 81 79 79 80 80 76 73 77 79 81 82 82 82 83 85 86 87 91 92 91 89 88
115 122 123 125 121 118 113 111 104 100 98 98 97 95 93 90 90 88 84 86 86 83 82 82 82 83 82 76 71 70 76 76 73 77 82 82 81 85 85 86 88 90 91 94 93 96 96 92 91
109 113 123 127 122 120 117 112 109 102 98 99 98 94 93 92 88 86 87 85 83 81 78 76 78 79 79 80 79 75 76 81 82 81 83 84 82 84 87 90 94 97 98 97 98 98 98 98 97
102 107 117 122 123 121 121 116 110 104 103 100 97 96 93 88 88 85 83 83 83 82 80 78 78 79 80 80 81 82 80 82 84 86 85 87 88 91 93 94 97 98 99 100 102 100 100 101 98
95 101 110 117 124 124 122 118 115 110 105 103 101 98 94 92 90 88 85 84 84 83 82 81 82 82 82 81 82 83 86 82 85 90 91 95 97 98 99 100 102 104 107 107 107 110 105 103 98
90 96 104 115 122 125 121 119 116 111 108 105 102 99 98 97 93 92 90 88 87 87 86 84 84 85 86 87 88 88 90 91 90 93 98 100 103 105 108 113 115 115 115 113 109 105 103 96 96
83 90 99 112 121 122 123 120 118 114 112 109 105 102 100 98 96 95 94 93 91 89 88 88 89 89 91 92 93 93 95 96 98 101 102 104 109 110 112 113 117 118 118 112 111 108 105 102 99
74 81 92 102 114 118 120 122 117 116 112 111 110 106 103 102 100 99 98 96 96 95 95 94 95 95 95 96 98 98 100 102 101 104 106 108 112 112 112 114 116 115 116 116 116 111 111 110 108
67 75 82 92 100 113 121 119 119 116 116 114 110 110 108 105 104 103 102 102 102 102 103 102 102 102 102 103 102 102 103 105 104 106 109 110 112 114 114 114 112 113 113 114 116 117 119 120 119
62 68 75 84 95 103 112 119 119 118 117 117 116 113 111 110 109 108 107 106 105 105 105 105 106 106 106 105 105 105 105 109 111 112 114 112 115 112 110 112 109 113 114 119 122 121 121 120 118
58 65 70 76 86 94 104 111 116 118 117 118 116 115 115 114 114 113 111 110 110 109 109 110 110 110 110 110 110 111 112 115 115 112 113 109 107 107 107 110 115 118 122 116 114 112 112 113 111
48 55 61 69 76 86 94 99 106 113 117 115 114 114 113 114 114 115 114 113 114 114 113 113 114 114 114 113 109 111 109 111 107 106 106 104 103 106 112 115 113 116 110 105 104 103 102 100 99
40 48 55 61 68 76 83 90 99 106 112 113 112 108 108 109 110 110 111 111 110 111 113 112 109 108 105 106 104 105 100 101 101 99 98 101 109 111 108 105 98 101 98 93 90 94 94 89 87
Wind_Direction
217 218 217 215 215 214 212 212 214 214 215 220 224 225 226 226 228 229 228 228 225 225 225 227 229 225 226 230 235 240 244 247 249 252 259 258 265 269 274 277 281 283 284 281 289 295 299 301 301
216 217 216 216 215 215 214 213 213 214 214 217 222 225 226 225 229 230 232 230 226 225 227 229 230 231 229 229 234 240 245 249 247 248 247 255 264 265 272 278 283 282 281 281 289 293 295 298 299
214 216 216 215 214 215 216 215 214 214 213 218 222 227 228 226 228 227 229 227 228 224 227 230 232 236 236 236 236 242 244 245 247 252 255 260 264 267 273 277 280 281 282 284 287 292 297 298 300
213 215 216 215 215 216 219 216 215 213 215 217 221 225 228 227 229 231 231 227 229 226 226 229 232 233 235 238 240 240 245 250 255 261 266 265 265 268 275 278 282 284 287 289 292 295 298 300 301
215 213 215 214 215 216 219 215 214 213 215 216 220 223 227 230 231 233 231 230 229 231 228 228 232 237 239 242 246 251 253 258 262 265 267 270 273 276 278 281 285 287 288 291 295 297 298 299 298
214 214 215 213 216 218 219 215 217 216 216 218 220 221 225 228 233 235 233 232 230 231 231 232 235 239 243 247 250 253 256 258 260 267 269 272 274 275 278 281 284 287 292 294 295 296 297 297 296
211 212 215 216 214 218 220 215 218 217 218 219 220 222 223 228 231 235 234 232 231 232 230 232 233 237 240 243 244 249 254 260 262 264 267 271 275 277 280 282 285 288 290 292 293 295 296 297 297
212 211 211 216 217 217 218 217 217 219 220 221 220 221 222 228 231 233 234 232 231 232 234 232 235 237 241 246 250 254 258 263 268 270 270 273 276 277 279 281 284 288 289 290 291 294 295 296 297
211 210 210 215 218 218 218 218 219 221 221 221 223 222 221 226 229 232 234 233 231 231 235 238 239 241 244 250 257 261 264 265 267 270 273 274 274 276 278 280 284 287 290 292 293 293 295 296 297
213 210 211 214 221 221 220 218 220 219 222 222 223 222 222 227 228 231 233 235 234 233 235 239 243 245 249 253 255 259 262 266 269 271 273 276 277 279 280 284 287 291 292 293 294 295 296 298 299
212 209 211 213 216 220 221 218 221 221 222 223 224 223 225 228 230 231 231 233 237 238 238 241 246 250 252 256 258 260 262 265 268 271 275 278 280 282 284 285 289 291 293 294 295 296 297 298 298
211 211 210 213 213 219 222 220 221 222 222 224 225 225 227 230 231 232 231 234 237 240 242 243 246 250 254 257 259 261 264 266 269 272 275 278 282 285 286 288 289 292 293 294 296 297 297 297 296
212 211 211 212 214 219 222 222 222 221 224 225 226 227 228 230 232 232 233 235 237 240 243 246 249 253 256 260 261 263 265 268 270 274 277 279 284 287 289 290 291 291 292 293 294 295 295 295 296
212 211 212 210 213 218 221 223 224 222 223 226 227 229 231 231 233 235 235 236 238 241 244 247 250 253 256 260 262 264 266 270 273 275 279 283 286 287 289 289 290 291 291 292 293 294 294 296 297
213 212 212 210 212 218 221 224 223 225 223 226 228 230 232 233 234 236 238 238 240 243 246 249 252 255 258 261 263 266 268 272 275 278 281 283 285 287 287 289 290 290 291 292 291 293 295 296 298
213 213 211 210 212 218 221 223 223 225 225 225 228 230 233 235 237 238 240 241 243 245 248 252 254 257 259 262 264 267 270 272 275 278 280 282 285 286 287 288 289 289 291 291 292 293 295 298 299
213 214 211 212 213 218 220 222 223 224 225 227 228 231 233 236 238 240 242 244 247 249 252 253 256 259 262 264 266 268 271 274 276 280 281 281 284 286 287 287 288 290 291 292 293 295 297 297 297
217 214 212 214 215 218 220 221 223 225 225 229 230 231 233 236 239 241 244 247 249 250 253 255 257 261 262 265 268 270 271 274 277 276 278 281 282 284 287 288 288 290 292 293 294 295 296 296 296
215 214 213 214 215 218 220 220 222 225 225 228 231 233 236 237 239 242 246 248 250 253 256 257 259 261 265 269 269 269 270 272 275 277 281 284 285 286 288 289 290 290 291 293 294 295 296 296 295
216 215 214 214 216 218 220 222 221 224 227 229 231 234 236 239 243 244 245 249 251 253 256 258 259 260 262 264 266 268 274 276 278 279 280 281 283 284 286 288 290 292 293 293 294 294 294 294 294
217 216 216 214 218 221 221 222 223 223 227 230 231 233 237 239 241 244 247 250 252 253 255 258 261 263 267 269 272 273 273 277 279 279 279 281 282 283 286 287 288 289 291 292 292 293 293 292 292
217 218 217 215 218 222 223 224 223 224 226 229 232 233 236 238 240 243 245 249 252 255 258 260 262 265 267 269 270 272 273 274 276 279 280 280 281 283 283 285 287 288 290 292 292 292 292 291 291
219 218 219 217 219 222 225 227 227 225 227 231 232 235 237 239 241 244 246 249 253 255 257 260 263 264 265 267 270 272 273 274 275 277 279 282 284 287 288 288 289 290 291 293 292 290 289 287 288
220 218 219 217 221 221 225 227 229 230 229 231 234 235 237 240 242 244 247 250 252 255 258 260 263 266 267 268 270 273 274 276 277 278 281 283 284 287 288 290 293 293 293 292 292 291 290 289 288
221 221 220 219 221 222 225 228 230 233 233 234 235 236 239 241 242 244 247 249 252 254 257 260 263 266 269 269 271 274 274 277 280 280 282 284 285 289 289 290 291 292 292 292 293 291 291 291 288
221 223 221 221 222 224 225 228 230 233 236 237 237 239 240 241 243 246 248 250 251 252 255 259 262 265 267 270 274 275 275 277 280 281 282 286 286 289 290 290 291 291 292 292 293 291 290 289 288
223 223 222 222 222 224 226 228 230 232 236 239 239 240 241 243 244 246 249 250 253 255 258 260 262 265 268 271 273 274 276 277 280 282 283 287 287 290 290 291 291 292 292 291 290 291 290 289 287
223 223 224 224 224 225 227 227 229 232 234 238 242 244 245 245 246 248 251 253 255 257 260 262 264 266 269 271 273 275 277 278 283 284 285 288 287 289 290 291 292 291 290 292 292 291 289 288 286
225 227 226 227 226 227 228 229 230 232 234 237 240 244 247 249 251 253 254 256 258 260 262 264 266 267 270 274 276 277 279 279 285 284 285 287 288 290 290 291 292 292 294 295 294 294 292 289 286
221 221 224 225 227 228 229 230 231 232 234 236 239 242 246 249 252 254 256 259 261 263 267 269 271 272 274 276 277 280 280 281 283 285 284 285 287 290 291 293 294 294 298 300 299 297 294 293 288